Weather History for Siloam Springs, AR

Change the Weather History Date:

Saturday, April 12, 2014

  Actual Average Record
Temperature  
Mean Temperature 70 °F -  
Max Temperature 78 °F 65 °F 82 °F (2006)
Min Temperature 62 °F 46 °F 32 °F (2007)
Cooling Degree Days 5    
Growing Degree Days 20 (Base 50)    
Moisture  
Dew Point 54 °F    
Average Humidity 59    
Maximum Humidity 68    
Minimum Humidity 44    
Precipitation  
Precipitation 0.00 in - - ()
Sea Level Pressure  
Sea Level Pressure 29.86 in    
Wind  
Wind Speed 14 mph (South)    
Max Wind Speed 25 mph    
Max Gust Speed 32 mph    
Visibility 10 miles    
Events      
Averages and records for this station are not official NWS values.
T = Trace of Precipitation, MM = Missing Value Source: NWS Daily Summary

Daily Weather History Graph

Daily Weather History Graph

Search for Another Location

Airport:

Trip Planner

Search our weather history database for the weather conditions in past years. The results will help you decide how hot, cold, wet, or windy it might be!

Date:

Astronomy

Apr. 12, 2014 Rise Set
Actual Time 6:48 AM CDT 7:49 PM CDT
Civil Twilight 6:22 AM CDT 8:15 PM CDT
Nautical Twilight 5:51 AM CDT 8:47 PM CDT
Astronomical Twilight 5:18 AM CDT 9:19 PM CDT
Moon 5:32 PM CDT (4/12) 5:11 AM CDT (4/12)
Length of Visible Light 13h 53m
Length of Day
13h 00m
Waxing Gibbous, 93% of the Moon is Illuminated
Apr 12
Waxing Gibbous
Apr 15
Full
Apr 22
Last Quarter
Apr 29
New
May 6
First Quarter

Hourly Weather History & Observations

Time (CDT) Temp. Dew Point Humidity Pressure Visibility Wind Dir Wind Speed Gust Speed Precip Events Conditions
12:15 AM 62.6 °F 51.8 °F 68% 29.99 in 10.0 mi SSE 8.1 mph - N/A   Overcast
12:35 AM 62.6 °F 51.8 °F 68% 29.98 in 10.0 mi SSE 8.1 mph - N/A   Overcast
12:55 AM 64.4 °F 51.8 °F 64% 29.98 in 10.0 mi SSE 9.2 mph - N/A   Overcast
1:15 AM 64.4 °F 51.8 °F 64% 29.97 in 10.0 mi SSE 9.2 mph - N/A   Overcast
1:35 AM 64.4 °F 51.8 °F 64% 29.97 in 10.0 mi SSE 9.2 mph - N/A   Overcast
1:55 AM 62.6 °F 51.8 °F 68% 29.96 in 10.0 mi SSE 9.2 mph - N/A   Mostly Cloudy
2:15 AM 64.4 °F 51.8 °F 64% 29.96 in 10.0 mi SSE 10.4 mph - N/A   Partly Cloudy
2:35 AM 62.6 °F 51.8 °F 68% 29.95 in 10.0 mi SSE 10.4 mph - N/A   Clear
2:55 AM 62.6 °F 51.8 °F 68% 29.95 in 10.0 mi SSE 9.2 mph - N/A   Scattered Clouds
3:15 AM 64.4 °F 51.8 °F 64% 29.95 in 10.0 mi SSE 8.1 mph - N/A   Overcast
3:35 AM 64.4 °F 51.8 °F 64% 29.94 in 10.0 mi SSE 10.4 mph - N/A   Overcast
3:55 AM 62.6 °F 51.8 °F 68% 29.94 in 10.0 mi South 9.2 mph - N/A   Mostly Cloudy
4:15 AM 64.4 °F 51.8 °F 64% 29.93 in 10.0 mi South 8.1 mph - N/A   Mostly Cloudy
4:35 AM 62.6 °F 51.8 °F 68% 29.93 in 10.0 mi South 6.9 mph - N/A   Mostly Cloudy
4:55 AM 62.6 °F 51.8 °F 68% 29.93 in 10.0 mi South 8.1 mph - N/A   Mostly Cloudy
5:15 AM 64.4 °F 51.8 °F 64% 29.93 in 10.0 mi South 8.1 mph - N/A   Mostly Cloudy
5:35 AM 64.4 °F 51.8 °F 64% 29.93 in 10.0 mi South 8.1 mph - N/A   Overcast
5:55 AM 64.4 °F 51.8 °F 64% 29.93 in 10.0 mi South 9.2 mph - N/A   Overcast
6:15 AM 64.4 °F 51.8 °F 64% 29.93 in 10.0 mi South 9.2 mph - N/A   Mostly Cloudy
6:35 AM 62.6 °F 51.8 °F 68% 29.93 in 10.0 mi South 10.4 mph - N/A   Partly Cloudy
6:55 AM 62.6 °F 51.8 °F 68% 29.92 in 10.0 mi South 11.5 mph - N/A   Clear
7:15 AM 62.6 °F 51.8 °F 68% 29.93 in 10.0 mi South 8.1 mph - N/A   Clear
7:35 AM 62.6 °F 51.8 °F 68% 29.93 in 10.0 mi SSE 10.4 mph - N/A   Clear
7:55 AM 64.4 °F 53.6 °F 68% 29.93 in 10.0 mi South 10.4 mph 16.1 mph N/A   Clear
8:15 AM 64.4 °F 53.6 °F 68% 29.93 in 10.0 mi South 11.5 mph 17.3 mph N/A   Clear
8:55 AM 66.2 °F 53.6 °F 64% 29.93 in 10.0 mi South 18.4 mph - N/A   Scattered Clouds
9:15 AM 66.2 °F 55.4 °F 68% 29.93 in 10.0 mi South 20.7 mph 28.8 mph N/A   Mostly Cloudy
9:35 AM 66.2 °F 55.4 °F 68% 29.92 in 10.0 mi SSW 25.3 mph 32.2 mph N/A   Scattered Clouds
9:55 AM 68.0 °F 55.4 °F 64% 29.92 in 10.0 mi South 24.2 mph 31.1 mph N/A   Partly Cloudy
10:15 AM 68.0 °F 55.4 °F 64% 29.92 in 10.0 mi South 20.7 mph 28.8 mph N/A   Clear
10:35 AM 69.8 °F 55.4 °F 60% 29.92 in 10.0 mi South 21.9 mph 27.6 mph N/A   Clear
10:55 AM 69.8 °F 55.4 °F 60% 29.92 in 10.0 mi South 18.4 mph 25.3 mph N/A   Scattered Clouds
11:15 AM 69.8 °F 55.4 °F 60% 29.92 in 10.0 mi South 18.4 mph 25.3 mph N/A   Scattered Clouds
11:35 AM 71.6 °F 55.4 °F 57% 29.92 in 10.0 mi South 21.9 mph 26.5 mph N/A   Scattered Clouds
11:55 AM 71.6 °F 57.2 °F 60% 29.91 in 10.0 mi South 20.7 mph 25.3 mph N/A   Mostly Cloudy
12:15 PM 71.6 °F 55.4 °F 57% 29.90 in 10.0 mi South 19.6 mph 31.1 mph N/A   Partly Cloudy
12:35 PM 71.6 °F 55.4 °F 57% 29.89 in 10.0 mi South 23.0 mph 27.6 mph N/A   Partly Cloudy
12:55 PM 73.4 °F 57.2 °F 57% 29.88 in 10.0 mi South 18.4 mph 28.8 mph N/A   Partly Cloudy
1:15 PM 73.4 °F 57.2 °F 57% 29.87 in 10.0 mi South 21.9 mph 25.3 mph N/A   Partly Cloudy
1:35 PM 75.2 °F 57.2 °F 53% 29.85 in 10.0 mi SSW 20.7 mph 31.1 mph N/A   Clear
1:55 PM 73.4 °F 57.2 °F 57% 29.84 in 10.0 mi SSW 25.3 mph 31.1 mph N/A   Clear
2:15 PM 77.0 °F 57.2 °F 50% 29.83 in 10.0 mi SSW 23.0 mph 27.6 mph N/A   Clear
2:35 PM 78.8 °F 57.2 °F 47% 29.82 in 10.0 mi South 23.0 mph 28.8 mph N/A   Clear
2:55 PM 78.8 °F 57.2 °F 47% 29.81 in 10.0 mi South 15.0 mph 27.6 mph N/A   Clear
3:15 PM 78.8 °F 57.2 °F 47% 29.80 in 10.0 mi South 19.6 mph 28.8 mph N/A   Clear
3:35 PM 78.8 °F 57.2 °F 47% 29.80 in 10.0 mi South 25.3 mph 29.9 mph N/A   Clear
3:55 PM 78.8 °F 57.2 °F 47% 29.78 in 10.0 mi South 24.2 mph 32.2 mph N/A   Clear
4:15 PM 78.8 °F 55.4 °F 44% 29.78 in 10.0 mi South 23.0 mph 29.9 mph N/A   Clear
4:35 PM 75.2 °F 55.4 °F 50% 29.77 in 10.0 mi South 23.0 mph 32.2 mph N/A   Clear
4:55 PM 75.2 °F 55.4 °F 50% 29.76 in 10.0 mi South 20.7 mph 31.1 mph N/A   Clear
5:15 PM 77.0 °F 55.4 °F 47% 29.76 in 10.0 mi South 25.3 mph 32.2 mph N/A   Clear
5:35 PM 75.2 °F 55.4 °F 50% 29.75 in 10.0 mi South 20.7 mph 31.1 mph N/A   Clear
5:55 PM 75.2 °F 53.6 °F 47% 29.75 in 10.0 mi South 24.2 mph 29.9 mph N/A   Clear
6:15 PM 75.2 °F 53.6 °F 47% 29.75 in 10.0 mi South 19.6 mph 31.1 mph N/A   Clear
6:35 PM 73.4 °F 53.6 °F 50% 29.76 in 10.0 mi South 16.1 mph - N/A   Clear
6:55 PM 73.4 °F 53.6 °F 50% 29.76 in 10.0 mi South 17.3 mph 24.2 mph N/A   Clear
7:15 PM 73.4 °F 51.8 °F 47% 29.76 in 10.0 mi South 15.0 mph 27.6 mph N/A   Clear
7:35 PM 73.4 °F 51.8 °F 47% 29.76 in 10.0 mi South 16.1 mph 20.7 mph N/A   Clear
7:55 PM 71.6 °F 51.8 °F 50% 29.77 in 10.0 mi South 17.3 mph 26.5 mph N/A   Clear
8:15 PM 71.6 °F 51.8 °F 50% 29.77 in 10.0 mi South 19.6 mph 26.5 mph N/A   Clear
8:35 PM 71.6 °F 51.8 °F 50% 29.78 in 10.0 mi South 18.4 mph 27.6 mph N/A   Clear
8:55 PM 71.6 °F 51.8 °F 50% 29.78 in 10.0 mi South 19.6 mph 25.3 mph N/A   Clear
9:15 PM 69.8 °F 51.8 °F 53% 29.79 in 10.0 mi South 19.6 mph 24.2 mph N/A   Clear
9:35 PM 69.8 °F 53.6 °F 56% 29.78 in 10.0 mi South 17.3 mph 25.3 mph N/A   Clear
9:55 PM 69.8 °F 53.6 °F 56% 29.78 in 10.0 mi South 12.7 mph 24.2 mph N/A   Clear
10:15 PM 69.8 °F 53.6 °F 56% 29.78 in 10.0 mi South 17.3 mph 23.0 mph N/A   Clear
10:35 PM 68.0 °F 53.6 °F 60% 29.78 in 10.0 mi South 16.1 mph 23.0 mph N/A   Clear
10:55 PM 68.0 °F 53.6 °F 60% 29.78 in 10.0 mi South 18.4 mph 27.6 mph N/A   Clear
11:15 PM 68.0 °F 53.6 °F 60% 29.77 in 10.0 mi South 15.0 mph 24.2 mph N/A   Clear
11:35 PM 68.0 °F 53.6 °F 60% 29.76 in 10.0 mi South 17.3 mph 25.3 mph N/A   Clear
11:55 PM 68.0 °F 53.6 °F 60% 29.76 in 10.0 mi South 18.4 mph 25.3 mph N/A   Clear